COSMOS 2251 DEB

Satellite information

Favourite Embed

Satellite Type and Status

DEBRISIN ORBIT

Key statistics

Satellite COSMOS 2251 DEB at a glance.

Uptime

11647

Days in orbit

Revolutions

≈ 14.2

Per day

Orbit

LEO

Low Earth Orbit

Inclination

74.1

Latest

Satellite identification and parameters

Extended collection of information and parameters for COSMOS 2251 DEB.

Object identification

Identified? True

Debris? True

Object name: COSMOS 2251 DEB

International designator: 1993-036BBJ

Object number (NORAD): 36459

Object ID (CCSDS): 36459

Country: COMMONWEALTH OF INDEPENDENT STATES (CIS)

Current information (Y/N): Y

RCS size: SMALL

Orbital parameters

Period: 101.109 minutes

Inclination: 74.0509 deg

SMA: 7189.297 km

Apoapsis: 901.554 km

Periapsis: 720.77 km

RAAN: 48.284 deg

Eccentricy: 0.0125731

Argument of periapsis: 198.8283 deg

Mean anomaly: 160.8194 deg

Mean motion: 14.24206969 rev/day

Mean motion (dot): 0.00005412 rev/day2

B* drag term: 0.0021716 1/REarth

Two-line elements (TLE)

Creation date: May 2, 2025, 2:33 a.m.

Reference frame: TEME

Reference center: EARTH

Epoch: April 30, 2025, 3:52 a.m. UTC

TLE line 0: 0 COSMOS 2251 DEB

TLE line 1: 1 36459U 93036BBJ 25120.16140512 .00005412 00000-0 21716-2 0 9999

TLE line 2: 2 36459 74.0509 48.2840 0125731 198.8283 160.8194 14.24206969 46549

Live tracking on map

Real-time ground track for satellite COSMOS 2251 DEB.

In-orbit conjunctions

A list of the most updated potential collisions computed for object COSMOS 2251 DEB.

Target Orbit TCA Probability of collision Miss distance Type
CZ-6A DEB LEO 2025-03-06 03:30:06 0.0001113754 136.0 (m) DEBRIS
SCOUT X-4 R/B LEO 2024-07-02 05:13:43 0.000538937 80.0 (m) ROCKET BODY

Associated space launch

Military communications satellite. Destroyed in a collision with Iridium 33.

COSMOS 2251 DEB was lifted into orbit during the mission ‘Kosmos-3M | Strela-2M 51’, on board a Kosmos-3M space rocket.

The launch took place on June 16, 1993, 4:17 a.m. from 132/1 (132L).

For more information about the launch, click the button.

Launch to space Kosmos-3M | Strela-2M 51
Kosmos-3M | Strela-2M 51

Agency: N/A

Status: Launch Successful

Launch date: June 16, 1993, 4:17 a.m. UTC

Rocket: Kosmos-3M

Launch pad: 132/1 (132L)

Location: Plesetsk Cosmodrome, Russian Federation

...

Latest news about this satellite

There are no fresh news available about this satellite. Check back as we update our databases every day.


Newsletter sign-up

Weekly statistics, charts and insights to help you stay on top of the space industry.